Location: Unspecified
(0.0000°N, 0.0000°E)
Time: 13:03:50
(UTC+00:00)

SL-12 DEB - Pass Details

Date: 30 April 2025
Orbit: 905 x 18020 km, 65.1° (Epoch: 09 July)

Event Time Altitude Azimuth Distance (km) Brightness Sun altitude
Rises 18:12:51 0° 341° (NNW) 21,206 ? -3.8°
Reaches altitude 10° 18:44:27 10° 347° (NNW) 22,002 ? -11.4°
Maximum altitude 21:12:05 88° 259° (WSW) 7,981 ? -46.5°
Enters shadow 21:26:03 53° 169° (SSE) 6,009 ? -49.7°
